Location: Unnamed
(45.0299°N, 38.9898°E)
Time: 15:23:29
(UTC+03:00)

Envisat - Visible Passes

Search period start: 12 August 2022 00:00
Search period end: 22 August 2022 00:00
Orbit: 763 x 765 km, 98.2° (Epoch: 11 August)

Date Brightness Start Highest point End Pass type
(mag) Time Alt. Az. Time Alt. Az. Time Alt. Az.
12 Aug 4.4 04:20:41 10° NNE 04:25:27 40° E 04:30:12 10° SSE visible
13 Aug 5.5 03:44:39 10° NE 03:48:13 19° E 03:51:45 10° SE visible
14 Aug 3.4 04:45:36 10° NNE 04:50:41 68° ESE 04:55:44 10° S visible
15 Aug 4.8 04:09:04 10° NNE 04:13:35 31° E 04:18:04 10° SSE visible
16 Aug 5.7 03:33:26 10° NE 03:36:16 15° E 03:39:05 10° ESE visible
17 Aug 3.8 04:33:51 10° NNE 04:38:50 53° E 04:43:47 10° S visible
18 Aug 5.1 03:57:30 10° NE 04:01:40 25° E 04:05:48 10° SSE visible
19 Aug 5.9 03:22:41 10° ENE 03:24:17 11° E 03:25:54 10° ESE visible
20 Aug 4.3 04:22:09 10° NNE 04:26:59 42° E 04:31:46 10° SSE visible
21 Aug 5.5 03:46:03 10° NE 03:49:44 20° E 03:53:24 10° SE visible
